RS-38S
1 57189U 23091Z   26200.83971924  .00008991  00000-0  25095-3 0  9999
2 57189  97.5069 270.9999 0005313 319.4661  40.6186 15.36959582169706
SONATE-2
1 59112U 24043Q   26200.40440229  .00027038  00000-0  32202-3 0  9998
2 59112  97.5568 352.8429 0006651  92.9788 267.2230 15.61057540132916
GRBBeta
1 60237U 24128C   26200.80471338  .00001694  00000-0  12609-3 0  9990
2 60237  61.9889 101.8102 0036461 141.7044 218.6649 15.06826059111185
Curium One
1 60242U 24128H   26200.82424608  .00003850  00000-0  22715-3 0  9991
2 60242  61.9780  90.1429 0035732 137.8245 222.5610 15.12901519111399
ROBUSTA-3A
1 60243U 24128J   26200.80775929  .00003795  00000-0  22927-3 0  9998
2 60243  61.9861  92.8547 0037484 134.5709 225.8458 15.12023729111355
CatSat
1 60246U 24125J   26200.83872024  .00047367  00000-0  52364-3 0  9996
2 60246  97.2059  53.8581 0019722  66.9183 293.4152 15.62656628112485
HYPERVIEW-1G (RS66S)
1 61772U 24199AP  26200.84661905  .00188486  00000-0  72006-3 0  9990
2 61772  97.2784  82.4646 0008244 139.7698 220.4185 15.86963099139835
AO-123
1 61781U 24199AY  26200.87065396  .00004138  00000-0  11970-3 0  9999
2 61781  97.2956  69.2491 0013534 183.4204 176.6950 15.36093106138945
JINJUSat 1B
1 63210U 25052A   26200.69621156  .00008989  00000-0  27187-3 0  9994
2 63210  97.3956  97.5108 0002706  16.4085 343.7245 15.34436603 75085
NUSHSAT 1
1 63211U 25052B   26200.68497765  .00011266  00000-0  31190-3 0  9992
2 63211  97.3932  98.1830 0002689  30.2578 329.8821 15.37148997 75130
TEVEL2-4
1 63213U 25052D   26200.64250594  .00010253  00000-0  29789-3 0  9993
2 63213  97.3853  97.1061 0003170  43.0133 317.1357 15.35661719 75093
TEVEL2-5
1 63214U 25052E   26200.60165345  .00010499  00000-0  30684-3 0  9997
2 63214  97.3852  97.0033 0003191  45.3967 314.7537 15.35471509 75082
TEVEL2-6
1 63215U 25052F   26200.67989981  .00009969  00000-0  29179-3 0  9992
2 63215  97.3856  97.0665 0003266  47.0245 313.1272 15.35437175 75090
TEVEL2-1
1 63217U 25052H   26200.45987699  .00009640  00000-0  28744-3 0  9997
2 63217  97.3828  96.4310 0003918  51.1832 308.9761 15.34859218 75048
TEVEL2-3
1 63218U 25052J   26200.25768580  .00009570  00000-0  28485-3 0  9996
2 63218  97.3840  96.2545 0003743  52.6845 307.4739 15.34918835 75014
TEVEL2-2
1 63219U 25052K   26200.78594407  .00009894  00000-0  29478-3 0  9992
2 63219  97.3829  96.7604 0003943  50.4643 309.6948 15.34877493 75095
TEVEL2-9
1 63237U 25052AD  26200.21882993  .00008721  00000-0  27749-3 0  9997
2 63237  97.3893  95.4966 0007321  45.4826 314.7014 15.32806992 74931
TEVEL2-7
1 63238U 25052AE  26200.46202924  .00008616  00000-0  27686-3 0  9998
2 63238  97.3895  95.6412 0007412  45.1189 315.0654 15.32492190 74960
TEVEL2-8
1 63239U 25052AF  26200.20940773  .00008420  00000-0  27078-3 0  9990
2 63239  97.3897  95.3655 0007478  46.6510 313.5354 15.32473641 74921
SPIRONE
1 66657U 25274H   26200.74669988  .00001203  00000-0  11916-3 0  9994
2 66657  97.7471 129.5746 0010357 265.8239  94.1797 14.93661944 35082
K-HERO
1 66660U 25274L   26200.80928521  .00001127  00000-0  11080-3 0  9993
2 66660  97.7479 129.8212 0012249 270.4927  89.4890 14.94069441 35102
SNUGLITE-III DURI
1 66661U 25274M   26200.79632779  .00000586  00000-0  60139-4 0  9997
2 66661  97.7475 129.8293 0012912 271.6797  88.2944 14.94096649 35100
SAKHACUBE-CHOLBON
1 67290U 25313AU  26200.17735025  .00004659  00000-0  18721-3 0  9994
2 67290  97.3918 274.8222 0007974 234.3086 125.7410 15.25400255 30858
RS95S (QMR-KWT-2)
1 67291U 25313AV  26200.72338959  .00006812  00000-0  25927-3 0  9990
2 67291  97.3911 275.6105 0007834 228.0755 131.9817 15.27042766 30951
Ten-Koh2
1 68261U 25241B   26200.27706009  .00002410  00000-0  11125-3 0  9998
2 68261  51.6569 166.8702 0004618 244.4647 115.5854 15.24194423 19809
JACK-002
1 68417U 26067B   26200.82276654  .00003486  00000-0  16627-3 0  9993
2 68417  97.4587 159.0217 0003317 125.7241 234.4302 15.19745779 16908
DISCO 2
1 68431U 26067R   26200.78395543  .00003905  00000-0  18713-3 0  9997
2 68431  97.4619 158.9730 0001114 161.2664 198.8612 15.19508007 16891
HADES-SA (SpinnyONE)
1 68446U 26067AG  26200.81672256  .00010199  00000-0  47523-3 0  9990
2 68446  97.4421 158.6517 0005367 347.3055  12.8043 15.20074216 16887
PARUS-6U1
1 68456U 26067AS  26200.82471642  .00003014  00000-0  15234-3 0  9990
2 68456  97.4571 158.6969 0004251 330.0523  30.0467 15.17821033 16880
SAL-E
1 68458U 26067AU  26200.81365779  .00004051  00000-0  20151-3 0  9990
2 68458  97.4497 158.6047 0004690 342.0871  18.0197 15.18176983 16886
FSI-SAT 2
1 68792U 26088A   26200.68923456  .00002244  00000-0  15345-3 0  9992
2 68792  97.5107 349.1442 0014123   2.4888 357.6408 15.07058853 13189
OrigamiSat 2
1 68795U 26088D   26200.85147161  .00005557  00000-0  35106-3 0  9992
2 68795  97.5107 349.5446 0013757 329.7076  30.3356 15.09377233 13226
ARICA 2
1 68796U 26088E   26200.86241360  .00001663  00000-0  11000-3 0  9991
2 68796  97.5099 349.5150 0014644 331.3545  28.6877 15.08647988 13229
WASEDA-SAT-ZERO-II
1 68797U 26088F   26200.65344440  .00002229  00000-0  14487-3 0  9993
2 68797  97.5096 349.3313 0014369 331.3831  28.6608 15.08953247 13194
MANGARO-II-Piscus
1 68798U 26088G   26200.64218723  .00001631  00000-0  10685-3 0  9999
2 68798  97.5108 349.3575 0018113 334.1683  25.8639 15.08981244 13197
IO-86
1 40931U          25360.30710720  .00000000  00000-0  12800-3 0    00
2 40931   6.0006 332.5373 0012733 338.8432   8.1437 14.79075515    01
LILIUM-4                
1 71922C 26067AC  26089.50133053 -.00014632  00000+0 -74472-3 0    04
2 71922  97.4497  49.1617 0004341   5.9603 355.7042 15.16896692    16
